Waarnemingen

Advertentie
Mijn weer
S. Maria Di Leuca, Italië (16360): temperatuur & dauwpunt: 12.02.2019 20:00:00 - 18.02.2019 20:00:00 (CET)S. Maria Di Leuca, Italië (16360): windsnelheid: 12.02.2019 20:00:00 - 18.02.2019 20:00:00 (CET)S. Maria Di Leuca, Italië (16360): windrichting: 12.02.2019 20:00:00 - 18.02.2019 20:00:00 (CET)S. Maria Di Leuca, Italië (16360): luchtdruk: 12.02.2019 20:00:00 - 18.02.2019 20:00:00 (CET)S. Maria Di Leuca, Italië (16360): zicht: 12.02.2019 20:00:00 - 18.02.2019 20:00:00 (CET)S. Maria Di Leuca, Italië (16360): Zonneschijnduur: 12.02.2019 20:00:00 - 18.02.2019 20:00:00 (CET)
Datum & Tijd tt [°C] td [°C] ff [km/u] ff [kn] dd ppp [hPa] vv [km] sd [min]
18.02.2019 20:00:00 11,0 9,3 4 2 N 1023,7 10 -
18.02.2019 19:00:00 11,0 8,9 2 1 WNW 1023,6 10 -
18.02.2019 18:00:00 11,4 9,5 2 1 WZW 1023,6 10 0
18.02.2019 17:00:00 11,4 9,1 5 3 WZW 1023,6 10 60
18.02.2019 16:00:00 11,2 9,6 9 5 WZW 1023,9 10 60
18.02.2019 15:00:00 11,4 8,6 11 6 WZW 1024,4 10 60
18.02.2019 14:00:00 11,4 8,8 9 5 WZW 1024,4 10 60
18.02.2019 13:00:00 11,6 9,7 11 6 WZW 1024,8 10 60
18.02.2019 12:00:00 11,4 9,3 8 4 ZZW 1025,1 10 60
18.02.2019 11:00:00 11,6 7,9 8 4 ZW 1025,6 10 60
18.02.2019 10:00:00 11,2 8,6 5 3 NNO 1025,5 10 60
18.02.2019 09:00:00 10,0 7,4 8 4 N 1025,7 10 60
18.02.2019 08:00:00 9,6 7,0 11 6 N 1025,7 10 48
18.02.2019 07:00:00 9,6 7,0 9 5 N 1025,0 10 0
18.02.2019 06:00:00 10,0 7,4 13 7 NNW 1024,9 10 -
18.02.2019 05:00:00 10,0 7,4 13 7 N 1025,2 10 -
18.02.2019 04:00:00 10,0 7,4 9 5 N 1025,2 10 -
18.02.2019 03:00:00 10,0 7,4 9 5 N 1025,5 10 -
18.02.2019 02:00:00 10,2 7,8 13 7 NNW 1025,7 10 -
18.02.2019 01:00:00 10,4 8,0 8 4 WNW 1025,8 10 -
18.02.2019 00:00:00 10,4 8,0 11 6 N 1025,9 10 -
17.02.2019 23:00:00 10,4 8,0 15 8 N 1026,0 10 -
17.02.2019 22:00:00 10,6 8,4 11 6 NNW 1026,3 10 -
17.02.2019 21:00:00 10,8 8,6 11 6 N 1026,1 10 -
17.02.2019 20:00:00 10,8 9,4 13 7 N 1025,9 12 -
17.02.2019 19:00:00 11,0 9,7 11 6 N 1026,2 10 -
17.02.2019 18:00:00 12,2 10,1 8 4 NNO 1025,7 15 0
17.02.2019 17:00:00 13,0 10,2 5 3 NO 1025,7 10 60
17.02.2019 16:00:00 13,8 8,4 5 3 NNO 1025,7 10 60
17.02.2019 15:00:00 12,8 7,3 11 6 NNO 1026,3 10 60
17.02.2019 14:00:00 12,8 7,5 15 8 N 1026,5 10 60
17.02.2019 13:00:00 12,8 8,9 16 9 N 1027,0 10 60
17.02.2019 12:00:00 12,0 8,3 16 9 N 1027,5 10 60
17.02.2019 11:00:00 10,0 6,9 15 8 N 1027,5 10 60
17.02.2019 10:00:00 9,0 6,6 18 10 N 1027,6 10 60
17.02.2019 09:00:00 8,4 5,7 13 7 N 1027,4 10 60
17.02.2019 08:00:00 7,8 5,1 21 11 N 1027,3 15 18
17.02.2019 07:00:00 7,6 5,1 15 8 NNW 1027,3 10 0
17.02.2019 06:00:00 7,6 5,1 15 8 N 1026,9 10 -
17.02.2019 05:00:00 7,6 5,7 18 10 N 1026,9 12 -
17.02.2019 04:00:00 7,6 6,4 18 10 N 1026,9 10 -
17.02.2019 03:00:00 8,2 6,7 18 10 N 1026,8 10 -
17.02.2019 02:00:00 8,0 6,6 26 14 NNO 1026,8 12 -
17.02.2019 01:00:00 8,2 7,0 26 14 NNO 1026,8 10 -
17.02.2019 00:00:00 7,6 6,9 26 14 NNO 1027,1 12 -
16.02.2019 23:00:00 8,0 6,9 24 13 NNO 1027,1 10 -
16.02.2019 22:00:00 8,0 7,1 18 10 NNO 1027,3 10 -
16.02.2019 21:00:00 8,2 6,7 22 12 N 1026,7 10 -
16.02.2019 20:00:00 8,4 6,4 22 12 N 1026,7 10 -
16.02.2019 19:00:00 9,8 6,5 15 8 N 1026,7 10 -
16.02.2019 18:00:00 10,2 6,5 21 11 NNO 1026,4 20 0
16.02.2019 17:00:00 10,8 4,0 22 12 N 1026,2 20 60
16.02.2019 16:00:00 10,8 2,6 18 10 NNO 1025,9 20 60
16.02.2019 15:00:00 10,2 3,3 29 16 NO 1025,7 20 60
16.02.2019 14:00:00 10,0 2,6 26 14 NO 1025,8 20 60
16.02.2019 13:00:00 10,0 2,6 22 12 NO 1026,2 20 60
16.02.2019 12:00:00 10,0 0,1 21 11 NO 1026,5 20 60
16.02.2019 11:00:00 10,0 0,3 22 12 N 1026,5 20 60
16.02.2019 10:00:00 10,0 0,3 21 11 NNO 1026,5 20 60
16.02.2019 09:00:00 9,2 4,0 15 8 NNO 1026,5 10 60
16.02.2019 08:00:00 8,8 5,5 15 8 NNO 1026,4 10 60
16.02.2019 07:00:00 7,8 4,2 18 10 NNO 1025,3 15 0
16.02.2019 06:00:00 8,0 4,0 21 11 NNO 1024,9 10 -
16.02.2019 05:00:00 8,8 3,2 22 12 NO 1024,9 10 -
16.02.2019 04:00:00 9,0 3,0 22 12 NNO 1024,9 10 -
16.02.2019 03:00:00 9,0 3,0 18 10 NO 1024,9 10 -
16.02.2019 02:00:00 9,0 2,8 21 11 NO 1024,9 10 -
16.02.2019 01:00:00 9,0 1,2 31 17 NO 1025,1 10 -
16.02.2019 00:00:00 9,0 1,4 26 14 NO 1024,9 10 -
15.02.2019 23:00:00 9,0 1,2 28 15 NO 1024,6 10 -
15.02.2019 22:00:00 9,0 0,2 22 12 NO 1023,8 10 -
15.02.2019 21:00:00 9,0 0,2 22 12 NO 1023,6 10 -
15.02.2019 20:00:00 9,0 1,0 26 14 NO 1023,3 10 -
15.02.2019 19:00:00 9,0 2,1 21 11 NNO 1023,3 10 -
15.02.2019 18:00:00 9,6 1,8 24 13 NO 1023,1 10 0
15.02.2019 17:00:00 10,0 1,4 29 16 NO 1022,3 10 54
15.02.2019 16:00:00 10,0 0,9 28 15 NO 1021,8 20 6
15.02.2019 15:00:00 10,4 0,2 29 16 NO 1021,8 20 42
15.02.2019 14:00:00 11,0 0,4 35 19 NO 1021,8 20 60
15.02.2019 13:00:00 11,4 4,2 35 19 NO 1022,2 20 60
15.02.2019 12:00:00 10,8 2,6 37 20 NO 1022,8 10 48
15.02.2019 11:00:00 10,0 3,5 28 15 NO 1023,5 10 12
15.02.2019 10:00:00 10,8 4,3 37 20 NO 1023,4 10 48
15.02.2019 09:00:00 9,6 5,4 22 12 N 1024,0 10 60
15.02.2019 08:00:00 7,8 4,8 18 10 N 1024,4 10 6
15.02.2019 07:00:00 9,0 4,2 18 10 N 1023,7 10 0
15.02.2019 06:00:00 9,0 4,2 16 9 N 1023,7 10 -
15.02.2019 05:00:00 9,0 4,8 18 10 N 1023,7 10 -
15.02.2019 04:00:00 9,8 6,2 16 9 NNO 1023,7 10 -
15.02.2019 03:00:00 9,8 5,6 22 12 NNO 1023,7 10 -
15.02.2019 02:00:00 10,0 4,4 18 10 NNO 1023,7 10 -
15.02.2019 01:00:00 10,0 8,3 22 12 NNO 1024,3 10 -
15.02.2019 00:00:00 10,0 8,4 22 12 NNO 1024,3 10 -
14.02.2019 23:00:00 10,0 8,4 16 9 N 1024,2 10 -
14.02.2019 22:00:00 10,0 8,4 22 12 N 1024,5 10 -
14.02.2019 21:00:00 10,0 8,8 26 14 N 1024,7 10 -
14.02.2019 20:00:00 10,0 8,1 29 16 N 1024,7 10 -
14.02.2019 19:00:00 10,0 7,8 28 15 N 1024,9 10 -
14.02.2019 18:00:00 10,0 6,7 21 11 N 1024,9 15 0
14.02.2019 17:00:00 10,0 4,4 26 14 N 1025,1 20 60
14.02.2019 16:00:00 10,4 2,7 34 18 N 1025,4 20 60
14.02.2019 15:00:00 10,6 1,4 34 18 NNO 1025,4 20 60
14.02.2019 14:00:00 10,6 1,7 37 20 NNO 1025,7 20 60
14.02.2019 13:00:00 11,0 0,4 39 21 NNO 1025,9 20 60
14.02.2019 12:00:00 10,8 0,2 41 22 NNO 1026,4 20 60
14.02.2019 11:00:00 10,0 3,7 35 19 NNO 1026,7 20 60
14.02.2019 10:00:00 8,6 0,8 42 23 NNO 1026,5 20 60
14.02.2019 09:00:00 8,2 2,4 29 16 N 1026,6 20 60
14.02.2019 08:00:00 7,6 2,5 24 13 N 1026,6 20 42
14.02.2019 07:00:00 7,4 2,5 22 12 N 1026,5 20 0
14.02.2019 06:00:00 7,0 2,3 28 15 N 1025,9 15 -
14.02.2019 05:00:00 7,0 2,9 35 19 N 1024,9 15 -
14.02.2019 04:00:00 7,0 2,9 31 17 NNO 1024,9 12 -
14.02.2019 03:00:00 7,2 2,3 37 20 NNO 1024,9 12 -
14.02.2019 02:00:00 7,2 0,4 31 17 NNO 1024,9 12 -
14.02.2019 01:00:00 7,2 0,0 34 18 NNO 1024,9 12 -
14.02.2019 00:00:00 7,4 0,2 31 17 NNO 1024,9 12 -
13.02.2019 23:00:00 7,4 -0,5 37 20 NNO 1024,6 12 -
13.02.2019 22:00:00 7,4 -0,8 37 20 NO 1024,2 10 -
13.02.2019 21:00:00 7,4 -1,8 37 20 NO 1023,9 12 -
13.02.2019 20:00:00 7,4 0,1 29 16 NNO 1023,8 12 -
13.02.2019 19:00:00 8,0 0,3 26 14 NNO 1023,8 10 -
13.02.2019 18:00:00 8,2 0,2 28 15 NNO 1023,3 12 0
13.02.2019 17:00:00 8,2 3,8 31 17 N 1022,7 12 0
13.02.2019 16:00:00 8,4 0,9 39 21 N 1022,5 12 0
13.02.2019 15:00:00 8,6 0,6 35 19 NNO 1022,5 12 0
13.02.2019 14:00:00 9,0 -2,9 39 21 NNO 1022,6 12 30
13.02.2019 13:00:00 9,0 -2,9 39 21 NNO 1022,0 12 60
13.02.2019 12:00:00 9,0 -1,7 46 25 NNO 1022,0 12 42
13.02.2019 11:00:00 - - - - - - - -
13.02.2019 10:00:00 8,2 -0,8 46 25 NNO 1022,0 12 60
13.02.2019 09:00:00 7,6 -1,4 46 25 NNO 1021,6 12 48
13.02.2019 08:00:00 8,0 -1,0 42 23 NNO 1021,3 12 42
13.02.2019 07:00:00 8,0 -1,3 41 22 NNO 1020,7 15 0
13.02.2019 06:00:00 8,2 -0,5 31 17 NNO 1020,6 10 -
13.02.2019 05:00:00 7,4 -1,3 34 18 NNO 1020,5 10 -
13.02.2019 04:00:00 8,6 0,3 29 16 NNO 1020,5 10 -
13.02.2019 03:00:00 8,6 0,3 22 12 N 1020,5 10 -
13.02.2019 02:00:00 8,8 0,8 26 14 NNO 1020,5 10 -
13.02.2019 01:00:00 8,8 0,8 21 11 N 1020,5 10 -
13.02.2019 00:00:00 8,6 1,5 22 12 N 1020,4 10 -
12.02.2019 23:00:00 8,8 1,5 22 12 N 1020,2 10 -
12.02.2019 22:00:00 8,8 1,7 29 16 N 1019,7 10 -
12.02.2019 21:00:00 8,8 1,5 28 15 N 1019,2 10 -
12.02.2019 20:00:00 8,8 3,0 18 10 NNW 1018,9 10 -

tt = temperatuur
td = dauwpunt
ff = windsnelheid
dd = windrichting
ppp = luchtdruk
vv = zicht
sd = Zonneschijnduur

Weerstations in de omgeving